Overview Statistics Trail Chart Weather Telemetry Raw packets
 

This is the latest recevied weather packets stored in our database for station/object N2ZVN. If no packets are shown the sender has not sent any weather packets the latest 10 day(s).

<< 84 85 86 87 88 89 90 >>
Time Temp. Humidity Pressure Rain* Wind** Luminosity Snow
1788085432 18.33° C 79% 1020 hPa 0 mm - 0 W/m² -
1788085128 18.33° C 80% 1020 hPa 0 mm - 0 W/m² -
1788084823 18.33° C 80% 1019.9 hPa 0 mm - 0 W/m² -
1788084523 18.33° C 78% 1019.9 hPa 0 mm - 0 W/m² -
1788084222 18.33° C 78% 1020 hPa 0 mm - 0 W/m² -
1788083921 18.33° C 80% 1019.8 hPa 0 mm - 0 W/m² -
1788083617 18.33° C 81% 1019.7 hPa 0 mm - 0 W/m² -
1788083313 18.33° C 79% 1019.8 hPa 0 mm - 0 W/m² -
1788083023 18.33° C 78% 1020.1 hPa 0 mm - 0 W/m² -
1788082704 18.89° C 76% 1019.9 hPa 0 mm - 0 W/m² -
1788082400 18.89° C 77% 1020 hPa 0 mm - 0 W/m² -
1788082100 19.44° C 74% 1020 hPa 0 mm - 0 W/m² -
1788081796 19.44° C 72% 1020.2 hPa 0 mm - 0 W/m² -
1788081493 20° C 71% 1019.9 hPa 0 mm - 0 W/m² -
1788081192 19.44° C 70% 1019.9 hPa 0 mm - 0 W/m² -
1788080891 19.44° C 73% 1019.8 hPa 0 mm - 0 W/m² -
1788080587 18.89° C 72% 1019.7 hPa 0 mm - 0 W/m² -
1788080286 18.89° C 74% 1020 hPa 0 mm - 0 W/m² -
1788079982 18.89° C 74% 1019.8 hPa 0 mm - 0 W/m² -
1788079677 19.44° C 76% 1019.8 hPa 0 mm - 0 W/m² -
1788079373 19.44° C 72% 1020 hPa 0 mm - 0 W/m² -
1788079067 18.89° C 75% 1020 hPa 0 mm - 0 W/m² -
1788078770 18.89° C 75% 1020 hPa 0 mm - 0 W/m² -
1788078463 18.89° C 75% 1020 hPa 0 mm - 0 W/m² -
1788078158 18.33° C 77% 1020.3 hPa 0 mm - 0 W/m² -

* Rain latest hour (hover to see other rain measurements)
** Current wind speed in m/s (hover to see current wind gust speed)